{"data":{"norad_id":47916,"intl_designator":"2021-021BJ","name":"STARLINK-2378","alt_names":[],"object_type":"PAYLOAD","status":"ACTIVE","operator":null,"country":"US","launch_date":"2021-03-14","launch_site_code":"AFETR","launch_vehicle":null,"mission":null,"orbit_class":"UNKNOWN","rcs_meters":null,"size_class":null,"mass_kg":null,"dimensions":null,"purposes":["comms"],"wikipedia_slug":null,"has_3d_model":false,"image_url":null,"decayed_at":null,"tle_current":{"epoch":"2026-05-25T00:35:46.812768Z","epoch_age_seconds":76200,"freshness":"FRESH","line1":"1 47916U 21021BJ  26145.02484737 -.00001602  00000+0 -39858-4 0  9993","line2":"2 47916  53.1589 260.3852 0001104  87.1909 272.9219 15.31705579288100","mean_motion":15.31705579,"eccentricity":0.0001104,"inclination_deg":53.1589,"raan_deg":260.3852,"arg_perigee_deg":87.1909,"mean_anomaly_deg":272.9219,"bstar":-3.9858e-5,"rev_number":28810,"period_min":94.012845532634,"perigee_km":469.96725038319,"apogee_km":471.47947875168,"semimajor_km":6848.8603645674,"source":"CELESTRAK","updated_at":"2026-05-25T13:38:16.637802Z"}}}